When you browse on this site, cookies collect data to enhance your experience and personalize the content and advertising you see.
Visit our Privacy Policy to learn more. By continuing to use the site, you agree to this use of cookies and data.
  • In France
  • List of Countries
  • For 7 days
  • Water Temperature
  • Weather Map
  • Weather Widgets
  • user-avatar
    Login

    Hourly Weather Natitingou

    Today, 23 September, Monday

    Time Temperature Precipitation Wind Pressure Humidity
    00:00 +24°C° 0 mm 1 mps 717 mmHg 89%
    01:00 +24°C° 0 mm 1 mps 717 mmHg 90%
    02:00 +24°C° 0 mm 1 mps 716 mmHg 90%
    03:00 +24°C° 0 mm 1 mps 716 mmHg 91%
    04:00 +24°C° 0 mm 1 mps 716 mmHg 93%
    05:00 +24°C° 0 mm 1 mps 717 mmHg 94%
    06:00 +23°C° 0 mm 1 mps 717 mmHg 96%
    07:00 +25°C° 0 mm 2 mps 717 mmHg 91%
    08:00 +26°C° 0 mm 2 mps 718 mmHg 86%
    09:00 +28°C° 0 mm 3 mps 718 mmHg 81%
    10:00 +29°C° 0 mm 2 mps 718 mmHg 75%
    11:00 +31°C° 0 mm 2 mps 718 mmHg 70%
    12:00 +32°C° 0 mm 2 mps 718 mmHg 64%
    13:00 +32°C° 1 mm 1 mps 717 mmHg 67%
    14:00 +31°C° 1 mm 1 mps 717 mmHg 70%
    15:00 +31°C° 1 mm 1 mps 716 mmHg 73%
    16:00 +29°C° 0.8 mm 1 mps 716 mmHg 78%
    17:00 +28°C° 0.8 mm 1 mps 716 mmHg 82%
    18:00 +25°C° 0.8 mm 0 mps 716 mmHg 87%
    19:00 +24°C° 0 mm 0 mps 717 mmHg 87%
    20:00 +26°C° 0 mm 1 mps 717 mmHg 88%
    21:00 +26°C° 0 mm 1 mps 717 mmHg 89%
    22:00 +26°C° 0 mm 1 mps 717 mmHg 89%
    23:00 +25°C° 0 mm 1 mps 717 mmHg 90%

    Tomorrow, 24 September, Tuesday

    Time Temperature Precipitation Wind Pressure Humidity
    00:00 +25°C° 0 mm 1 mps 717 mmHg 91%
    01:00 +25°C° 0 mm 1 mps 717 mmHg 93%
    02:00 +25°C° 0 mm 1 mps 717 mmHg 95%
    03:00 +24°C° 0 mm 1 mps 716 mmHg 97%
    04:00 +24°C° 0 mm 1 mps 716 mmHg 97%
    05:00 +24°C° 0 mm 1 mps 717 mmHg 97%
    06:00 +24°C° 0 mm 1 mps 717 mmHg 97%
    07:00 +25°C° 0 mm 1 mps 718 mmHg 92%
    08:00 +26°C° 0 mm 2 mps 718 mmHg 88%
    09:00 +27°C° 0 mm 2 mps 719 mmHg 84%
    10:00 +28°C° 0.2 mm 2 mps 719 mmHg 80%
    11:00 +30°C° 0.2 mm 2 mps 719 mmHg 76%
    12:00 +31°C° 0.2 mm 1 mps 718 mmHg 71%
    13:00 +31°C° 0.4 mm 2 mps 718 mmHg 72%
    14:00 +30°C° 0.4 mm 2 mps 717 mmHg 73%
    15:00 +30°C° 0.4 mm 2 mps 716 mmHg 75%
    16:00 +29°C° 0.4 mm 2 mps 716 mmHg 80%
    17:00 +28°C° 0.4 mm 2 mps 716 mmHg 86%
    18:00 +27°C° 0.4 mm 1 mps 716 mmHg 91%
    19:00 +26°C° 0.5 mm 1 mps 717 mmHg 93%
    20:00 +26°C° 0.5 mm 1 mps 717 mmHg 94%
    21:00 +25°C° 0.5 mm 1 mps 718 mmHg 96%
    22:00 +25°C° 0 mm 1 mps 717 mmHg 96%
    23:00 +25°C° 0 mm 1 mps 717 mmHg 96%

    Day after tomorrow, 25 September, Wednesday

    Time Temperature Precipitation Wind Pressure Humidity
    00:00 +25°C° 0 mm 1 mps 717 mmHg 97%
    01:00 +24°C° 0 mm 1 mps 717 mmHg 97%
    02:00 +24°C° 0 mm 1 mps 717 mmHg 97%
    03:00 +24°C° 0 mm 2 mps 716 mmHg 97%
    04:00 +24°C° 0 mm 2 mps 716 mmHg 97%
    05:00 +24°C° 0 mm 2 mps 717 mmHg 97%
    06:00 +24°C° 0 mm 2 mps 717 mmHg 97%
    07:00 +25°C° 0 mm 2 mps 717 mmHg 92%
    08:00 +27°C° 0 mm 2 mps 718 mmHg 87%
    09:00 +28°C° 0 mm 2 mps 718 mmHg 82%
    10:00 +29°C° 0 mm 2 mps 718 mmHg 76%
    11:00 +31°C° 0 mm 2 mps 718 mmHg 69%
    12:00 +32°C° 0 mm 2 mps 717 mmHg 63%
    13:00 +32°C° 0 mm 2 mps 717 mmHg 62%
    14:00 +32°C° 0 mm 1 mps 717 mmHg 61%
    15:00 +32°C° 0 mm 1 mps 716 mmHg 60%
    16:00 +31°C° 1.1 mm 1 mps 716 mmHg 69%
    17:00 +29°C° 1.1 mm 1 mps 716 mmHg 78%
    18:00 +27°C° 1.1 mm 1 mps 716 mmHg 86%
    19:00 +26°C° 0.2 mm 1 mps 716 mmHg 88%
    20:00 +26°C° 0.2 mm 1 mps 717 mmHg 89%
    21:00 +25°C° 0.2 mm 1 mps 717 mmHg 90%
    22:00 +25°C° 0.3 mm 1 mps 717 mmHg 92%
    23:00 +25°C° 0.3 mm 2 mps 717 mmHg 94%

    26 September, Thursday

    Time Temperature Precipitation Wind Pressure Humidity
    00:00 +25°C° 0.3 mm 2 mps 717 mmHg 95%
    01:00 +24°C° 0 mm 2 mps 717 mmHg 96%
    02:00 +24°C° 0 mm 2 mps 717 mmHg 96%
    03:00 +24°C° 0 mm 2 mps 717 mmHg 96%
    04:00 +24°C° 0 mm 2 mps 717 mmHg 97%
    05:00 +24°C° 0 mm 2 mps 717 mmHg 97%
    06:00 +24°C° 0 mm 2 mps 718 mmHg 97%
    07:00 +25°C° 0 mm 3 mps 718 mmHg 93%
    08:00 +26°C° 0 mm 3 mps 719 mmHg 89%
    09:00 +27°C° 0 mm 3 mps 719 mmHg 85%
    10:00 +28°C° 0 mm 3 mps 719 mmHg 80%
    11:00 +30°C° 0 mm 3 mps 718 mmHg 74%
    12:00 +31°C° 0 mm 3 mps 718 mmHg 69%
    13:00 +31°C° 0.4 mm 3 mps 718 mmHg 70%
    14:00 +31°C° 0.4 mm 2 mps 717 mmHg 72%
    15:00 +30°C° 0.4 mm 2 mps 717 mmHg 73%
    16:00 +29°C° 2.1 mm 2 mps 717 mmHg 78%
    17:00 +28°C° 2.1 mm 2 mps 717 mmHg 84%
    18:00 +26°C° 2.1 mm 1 mps 717 mmHg 89%
    19:00 +26°C° 0.3 mm 1 mps 717 mmHg 90%
    20:00 +25°C° 0.3 mm 1 mps 718 mmHg 92%
    21:00 +25°C° 0.3 mm 2 mps 718 mmHg 93%
    22:00 +25°C° 0 mm 2 mps 718 mmHg 93%
    23:00 +25°C° 0 mm 2 mps 718 mmHg 94%

    27 September, Friday

    Time Temperature Precipitation Wind Pressure Humidity
    00:00 +24°C° 0 mm 2 mps 718 mmHg 94%
    01:00 +24°C° 0.1 mm 2 mps 717 mmHg 94%
    02:00 +24°C° 0.1 mm 2 mps 717 mmHg 94%
    03:00 +24°C° 0.1 mm 1 mps 717 mmHg 94%
    04:00 +23°C° 0.4 mm 1 mps 717 mmHg 94%
    05:00 +23°C° 0.4 mm 1 mps 718 mmHg 94%
    06:00 +23°C° 0.4 mm 1 mps 718 mmHg 94%
    07:00 +24°C° 0.1 mm 1 mps 719 mmHg 90%
    08:00 +26°C° 0.1 mm 1 mps 719 mmHg 87%
    09:00 +27°C° 0.1 mm 2 mps 720 mmHg 83%
    10:00 +28°C° 0.1 mm 2 mps 719 mmHg 77%
    11:00 +30°C° 0.1 mm 2 mps 718 mmHg 72%
    12:00 +31°C° 0.1 mm 2 mps 718 mmHg 66%
    13:00 +30°C° 0 mm 2 mps 717 mmHg 68%
    14:00 +30°C° 0 mm 2 mps 717 mmHg 70%
    15:00 +30°C° 0 mm 2 mps 716 mmHg 71%
    16:00 +29°C° 0 mm 2 mps 716 mmHg 76%
    17:00 +28°C° 0 mm 1 mps 716 mmHg 81%
    18:00 +26°C° 0 mm 1 mps 716 mmHg 86%
    19:00 +26°C° 0.5 mm 1 mps 717 mmHg 88%
    20:00 +25°C° 0.5 mm 1 mps 717 mmHg 91%
    21:00 +25°C° 0.5 mm 1 mps 717 mmHg 93%
    22:00 +24°C° 0 mm 1 mps 718 mmHg 93%
    23:00 +24°C° 0 mm 1 mps 718 mmHg 93%

    28 September, Saturday

    Time Temperature Precipitation Wind Pressure Humidity
    00:00 +24°C° 0 mm 1 mps 718 mmHg 94%
    01:00 +24°C° 0.1 mm 1 mps 717 mmHg 94%
    02:00 +23°C° 0.1 mm 1 mps 717 mmHg 94%
    03:00 +23°C° 0.1 mm 1 mps 717 mmHg 94%
    04:00 +23°C° 0 mm 1 mps 717 mmHg 95%
    05:00 +23°C° 0 mm 1 mps 718 mmHg 95%
    06:00 +23°C° 0 mm 1 mps 718 mmHg 95%
    07:00 +24°C° 0.2 mm 2 mps 719 mmHg 90%
    08:00 +26°C° 0.2 mm 3 mps 719 mmHg 85%
    09:00 +27°C° 0.2 mm 3 mps 719 mmHg 81%
    10:00 +28°C° 0 mm 3 mps 719 mmHg 73%
    11:00 +30°C° 0 mm 3 mps 718 mmHg 65%
    12:00 +31°C° 0 mm 2 mps 717 mmHg 57%
    13:00 +32°C° 0 mm 2 mps 717 mmHg 55%
    14:00 +32°C° 0 mm 1 mps 717 mmHg 52%
    15:00 +31°C° 0 mm 0 mps 716 mmHg 50%
    16:00 +31°C° 0 mm 1 mps 716 mmHg 59%
    17:00 +29°C° 0 mm 1 mps 716 mmHg 67%
    18:00 +27°C° 0 mm 1 mps 716 mmHg 75%
    19:00 +26°C° 0.2 mm 1 mps 716 mmHg 79%
    20:00 +25°C° 0.2 mm 1 mps 717 mmHg 83%
    21:00 +25°C° 0.2 mm 1 mps 717 mmHg 87%
    22:00 +24°C° 0.1 mm 1 mps 717 mmHg 87%
    23:00 +22°C° 0.1 mm 0 mps 717 mmHg 87%
    Show more